Fort Lewis, WA

5:39 AM PDT on October 24, 2017 (GMT -0700)
Gray Army Air Field

Weather History for KGRF - April, 2014

Change the Weather History Date:

Friday, April 11, 2014

  Actual Average Record
Temperature  
Mean Temperature 48 °F -  
Max Temperature 61 °F 56 °F 82 °F (2004)
Min Temperature 35 °F 37 °F 30 °F (1999)
Degree Days  
Heating Degree Days 17    
Moisture  
Dew Point 41 °F    
Average Humidity 85    
Maximum Humidity 100    
Minimum Humidity 50    
Precipitation  
Precipitation 0.00 in - - ()
Sea Level Pressure  
Sea Level Pressure 30.14 in    
Wind  
Wind Speed 4 mph (South)    
Max Wind Speed 14 mph    
Max Gust Speed -    
Visibility 8 miles    
Events Fog    
Averages and records for this station are not official NWS values.
T = Trace of Precipitation, MM = Missing Value Source: NWS Daily Summary

Daily Weather History Graph

Daily Weather History Graph

Search for Another Location

Airport or City:

Trip Planner

Search our weather history database for the weather conditions in past years. The results will help you decide how hot, cold, wet, or windy it might be!

Date:

Astronomy

Apr. 11, 2014 Rise Set
Actual Time 6:29 AM PDT 7:53 PM PDT
Civil Twilight 5:58 AM PDT 8:25 PM PDT
Nautical Twilight 5:19 AM PDT 9:03 PM PDT
Astronomical Twilight 4:38 AM PDT 9:45 PM PDT
Moon 4:27 PM PDT (4/11) 4:41 AM PDT (4/11)
Length of Visible Light 14h 27m
Length of Day
13h 24m
Waxing Gibbous, 87% of the Moon is Illuminated
Apr 11
Waxing Gibbous
Apr 15
Full
Apr 22
Last Quarter
Apr 28
New
May 6
First Quarter

Hourly Weather History & Observations

Time (PDT) Temp. Windchill Dew Point Humidity Pressure Visibility Wind Dir Wind Speed Gust Speed Precip Events Conditions
12:58 AM 40.8 °F - 39.2 °F 94% 30.16 in 10.0 mi SSE 2.3 mph - N/A   Overcast
1:58 AM 39.0 °F 35.7 °F 38.1 °F 97% 30.17 in 10.0 mi SSE 4.6 mph - N/A   Partly Cloudy
2:58 AM 37.4 °F 32.8 °F 37.0 °F 99% 30.18 in 10.0 mi SE 5.8 mph - N/A   Clear
3:58 AM 35.8 °F 31.9 °F 35.6 °F 99% 30.18 in 10.0 mi SSE 4.6 mph - N/A   Clear
4:58 AM 36.5 °F - 36.3 °F 99% 30.17 in 10.0 mi Calm Calm - N/A   Partly Cloudy
5:58 AM 35.2 °F - 34.9 °F 99% 30.17 in 10.0 mi SE 2.3 mph - N/A   Clear
6:58 AM 35.8 °F 31.9 °F 35.6 °F 99% 30.18 in 10.0 mi SE 4.6 mph - N/A   Overcast
7:19 AM 37.4 °F 32.8 °F 37.4 °F 100% 30.16 in 10.0 mi SE 5.8 mph - N/A   Overcast
7:34 AM 37.4 °F 33.8 °F 37.4 °F 100% 30.17 in 10.0 mi SE 4.6 mph - N/A   Overcast
7:44 AM 37.4 °F 32.8 °F 37.4 °F 100% 30.17 in 10.0 mi SE 5.8 mph - N/A   Overcast
7:58 AM 38.3 °F 33.9 °F 38.1 °F 99% 30.19 in 10.0 mi SE 5.8 mph - N/A   Overcast
8:03 AM 39.2 °F 35.0 °F 39.2 °F 100% 30.17 in 10.0 mi SSE 5.8 mph - N/A   Overcast
8:28 AM 41.0 °F 39.0 °F 41.0 °F 100% 30.17 in 9.0 mi SSE 3.5 mph - N/A   Overcast
8:33 AM 41.0 °F 39.0 °F 41.0 °F 100% 30.17 in 2.5 mi SE 3.5 mph - N/A   Overcast
8:38 AM 41.0 °F 39.0 °F 41.0 °F 100% 30.17 in 1.2 mi SE 3.5 mph - N/A   Overcast
8:43 AM 41.0 °F 38.0 °F 41.0 °F 100% 30.17 in 1.0 mi SSE 4.6 mph - N/A   Overcast
8:48 AM 41.0 °F 38.0 °F 41.0 °F 100% 30.17 in 0.5 mi SSE 4.6 mph - N/A Fog Fog
8:53 AM 42.8 °F 41.1 °F 41.0 °F 93% 30.17 in 0.2 mi SSE 3.5 mph - N/A Fog Fog
8:58 AM 42.1 °F - 41.9 °F 99% 30.19 in 0.2 mi SE 2.3 mph - N/A Fog Fog
9:13 AM 42.8 °F - 42.8 °F 100% 30.17 in 0.5 mi SE 2.3 mph - N/A Fog Fog
9:16 AM 42.8 °F - 42.8 °F 100% 30.17 in 1.5 mi SE 2.3 mph - N/A   Mostly Cloudy
9:18 AM 42.8 °F - 42.8 °F 100% 30.16 in 3.0 mi SSE 2.3 mph - N/A   Scattered Clouds
9:21 AM 42.8 °F - 42.8 °F 100% 30.16 in 10.0 mi SSE 1.2 mph - N/A   Scattered Clouds
9:58 AM 47.8 °F - 43.7 °F 86% 30.18 in 10.0 mi SW 2.3 mph - N/A   Clear
10:58 AM 51.3 °F - 41.9 °F 70% 30.17 in 10.0 mi Variable 2.3 mph - N/A   Clear
11:58 AM 55.2 °F - 41.4 °F 60% 30.16 in 10.0 mi Calm Calm - N/A   Clear
12:58 PM 58.6 °F - 42.8 °F 56% 30.15 in 10.0 mi West 5.8 mph - N/A   Partly Cloudy
1:58 PM 59.2 °F - 41.7 °F 52% 30.14 in 10.0 mi North 4.6 mph - N/A   Clear
2:58 PM 59.5 °F - 41.9 °F 52% 30.12 in 10.0 mi Variable 6.9 mph - N/A   Partly Cloudy
3:58 PM 60.4 °F - 41.7 °F 50% 30.10 in 10.0 mi Variable 4.6 mph - N/A   Partly Cloudy
4:58 PM 60.4 °F - 41.9 °F 50% 30.08 in 10.0 mi WSW 3.5 mph - N/A   Clear
5:58 PM 61.3 °F - 42.3 °F 50% 30.06 in 10.0 mi NW 8.1 mph - N/A   Clear
6:58 PM 59.9 °F - 43.7 °F 55% 30.05 in 10.0 mi West 3.5 mph - N/A   Clear
7:58 PM 56.8 °F - 45.9 °F 67% 30.05 in 10.0 mi West 9.2 mph - N/A   Mostly Cloudy
8:58 PM 54.1 °F - 45.0 °F 71% 30.06 in 10.0 mi West 13.8 mph - N/A   Overcast
9:58 PM 52.2 °F - 44.6 °F 75% 30.06 in 10.0 mi WSW 9.2 mph - N/A   Overcast
10:58 PM 51.1 °F - 43.7 °F 76% 30.06 in 10.0 mi WSW 6.9 mph - N/A   Overcast
11:23 PM 50.0 °F - 42.8 °F 76% 30.05 in 10.0 mi West 6.9 mph - N/A   Overcast
11:58 PM 49.8 °F - 43.0 °F 77% 30.07 in 10.0 mi WNW 5.8 mph - N/A   Overcast